Regional Weather Roundup
Issued by NWS Newport/Morehead, NC

Current Version | Previous Version | Text Only | Print | Product List | Glossary On
Versions: 1 2 3 4 5 6 7 8 9 10 11 12 13 14 15 16 17 18 19 20 21 22 23 24 25 26 27 28 29 30 31 32 33 34 35 36 37 38 39 40 41 42 43 44 45 46 47 48 49 50
000 ASUS42 KMHX 210414 RWRMHX WEATHER ROUNDUP FOR EASTERN NORTH CAROLINA NATIONAL WEATHER SERVICE NEWPORT/MOREHEAD CITY NC 1200 AM EDT MON AUG 21 2017 NOTE: "FAIR" INDICATES FEW OR NO CLOUDS BELOW 12,000 FEET WITH NO SIGNIFICANT WEATHER AND/OR OBSTRUCTIONS TO VISIBILITY NCZ015>017-031-032-045>047-102-103-210500- NORTH COAST CITY SKY/WX TMP DP RH WIND PRES REMARKS EDENTON CLEAR 80 76 89 CALM 30.18S ELIZABETH CITY CLEAR 75 75 100 CALM 30.18S KITTY HAWK CLEAR 76 74 92 CALM 30.17R MANTEO PTCLDY 75 74 96 CALM 30.18S $$ NCZ045>047-081-094-103-104-210500- CENTRAL COAST CITY SKY/WX TMP DP RH WIND PRES REMARKS FRISCO MOCLDY 77 77 100 CALM 30.16F $$ NCZ095-097-098-100-101-210500- SOUTHERN COAST CITY SKY/WX TMP DP RH WIND PRES REMARKS BEAUFORT CLOUDY 77 77 100 CALM 30.16S CEDAR ISLAND NOT AVBL JACKSONVILLE CLOUDY 77 77 100 CALM 30.15S PINEY ISLAND CLOUDY N/A N/A N/A SE3 30.16S WILMINGTON MOCLDY 77 76 96 N3 30.15S $$ NCZ011>013-027>030-043-044-078>080-089-090>093-098-210500- COASTAL PLAIN CITY SKY/WX TMP DP RH WIND PRES REMARKS AHOSKIE N/A 74 74 98 CALM 30.18S CLINTON PTCLDY 76 75 98 CALM 30.17R ELIZABETHTOWN NOT AVBL GOLDSBORO NOT AVBL GREENVILLE CLOUDY 77 73 88 CALM 30.18S HAVELOCK MOCLDY 77 74 90 CALM 30.17S KENANSVILLE CLOUDY 73 73 100 CALM 30.17S FOG KINSTON CLOUDY 76 74 92 CALM 30.17S NEW BERN PTCLDY 75 75 100 CALM 30.18S RICHLANDS PTCLDY 74 73 97 CALM 30.17R FOG ROCKY MOUNT CLEAR 74 73 97 CALM 30.17S WASHINGTON CLOUDY 76 74 92 CALM 30.17S WHITEVILLE PTCLDY 76 75 96 CALM 30.15R $$ AMZ130-135-150-152-154-156-158-170-250-252-270-ANZ085-086-088-633-658-670-210500- MARINE OBSERVATIONS STATION/POSITION TIME TEMP WIND PRES WAVE SWELL AIR SEA DIR/SP/G HT/PER HT/PER (UTC) (F) (DEG/KT/KT) (MB) (FT/S) (FT/S) CHESAPEAKE LIGHT NOT AVBL 64 E VA BEACH 0350 78 79 130/ 6/ 8 1022.1 2/ 8 2/ 8 DUCK 0348 79 80 100/ 7/ 7 1021.5 2 E DUCK 0330 79 N/A 2/ 9 OREGON INLET 0342 77 81 50/ 3/ 4 1021.6 13E OREGON INLT 0348 80 N/A 2/ 8 2/ 8 HATTERAS CG 0348 79 80 90/ 2/ 3 1021.4 DIAMOND BUOY 0350 83 85 160/ 2/ 2 1021.2 2/ 8 2/ 8 CAPE LOOKOUT 0400 81 70/ 3/ 3 1020.8 BEAUFORT LAB 0348 81 81 CALM / 3 1020.7 30 SE NEW RVR IN 0308 81 84 190/ 4/ 8 1021.1 30 SE NEW RVR IN 0343 84 N/A 2/ 8 27 SE WRIGHTSVLE 0308 84 84 150/ 4/ 6 1020.7 5 SE WRIGHTSVLE 0308 83 83 140/ 4/ 8 1020.6 225 S CAPE HAT 0350 83 85 150/ 8/ 10 1021.4 3/ 8 3/ 8 41 SE CHARLESTON 0400 85 84 160/ 6/ 8 1019.9 $$

USA.gov is the U.S. government's official web portal to all federal, state and local government web resources and services.